• En España
  • Lista de países
  • Para 7 días
  • Temperatura del agua
  • Mapa Satelital
  • El tiempo en el mapa
  • Informadores
  • user-avatar
    Iniciar sesión

    Tiempo cada hora Bolshoy Mashlyak

    Hoy, 25 Septiembre, Martes

    Tiempo Temperatura Precipitaciones Viento Presión Humedad
    00:00 +12°C° 0 mm 1 mps 749 mmHg 89%
    01:00 +12°C° 0 mm 1 mps 748 mmHg 89%
    02:00 +12°C° 0 mm 1 mps 748 mmHg 88%
    03:00 +13°C° 0 mm 1 mps 748 mmHg 87%
    04:00 +12°C° 0 mm 2 mps 748 mmHg 89%
    05:00 +12°C° 0 mm 2 mps 748 mmHg 91%
    06:00 +11°C° 0 mm 3 mps 748 mmHg 92%
    07:00 +11°C° 0.2 mm 3 mps 748 mmHg 91%
    08:00 +12°C° 0.2 mm 3 mps 748 mmHg 89%
    09:00 +12°C° 0.2 mm 3 mps 748 mmHg 88%
    10:00 +12°C° 0.2 mm 4 mps 748 mmHg 85%
    11:00 +13°C° 0.2 mm 4 mps 748 mmHg 83%
    12:00 +13°C° 0.2 mm 5 mps 748 mmHg 80%
    13:00 +14°C° 0.3 mm 5 mps 747 mmHg 80%
    14:00 +14°C° 0.3 mm 5 mps 747 mmHg 80%
    15:00 +14°C° 0.3 mm 5 mps 747 mmHg 79%
    16:00 +14°C° 0.6 mm 5 mps 747 mmHg 81%
    17:00 +13°C° 0.6 mm 5 mps 747 mmHg 83%
    18:00 +13°C° 0.6 mm 5 mps 747 mmHg 84%
    19:00 +13°C° 0.3 mm 5 mps 746 mmHg 84%
    20:00 +13°C° 0.3 mm 5 mps 746 mmHg 83%
    21:00 +13°C° 0.3 mm 6 mps 746 mmHg 82%
    22:00 +13°C° 0.1 mm 6 mps 746 mmHg 80%
    23:00 +13°C° 0.1 mm 6 mps 746 mmHg 77%

    Mañana, 26 Septiembre, Miércoles

    Tiempo Temperatura Precipitaciones Viento Presión Humedad
    00:00 +13°C° 0.1 mm 5 mps 746 mmHg 75%
    01:00 +12°C° 0 mm 5 mps 746 mmHg 79%
    02:00 +10°C° 0 mm 5 mps 746 mmHg 82%
    03:00 +10°C° 0 mm 5 mps 747 mmHg 86%
    04:00 +9°C° 0 mm 5 mps 747 mmHg 87%
    05:00 +8°C° 0 mm 4 mps 748 mmHg 88%
    06:00 +7°C° 0 mm 4 mps 748 mmHg 89%
    07:00 +8°C° 0 mm 5 mps 749 mmHg 85%
    08:00 +8°C° 0 mm 5 mps 750 mmHg 80%
    09:00 +9°C° 0 mm 6 mps 750 mmHg 76%
    10:00 +10°C° 0 mm 5 mps 750 mmHg 73%
    11:00 +10°C° 0 mm 5 mps 751 mmHg 71%
    12:00 +12°C° 0 mm 5 mps 751 mmHg 68%
    13:00 +10°C° 0 mm 5 mps 751 mmHg 69%
    14:00 +10°C° 0 mm 5 mps 752 mmHg 70%
    15:00 +11°C° 0 mm 4 mps 752 mmHg 71%
    16:00 +10°C° 0 mm 4 mps 752 mmHg 73%
    17:00 +10°C° 0 mm 3 mps 752 mmHg 75%
    18:00 +9°C° 0 mm 3 mps 753 mmHg 77%
    19:00 +9°C° 0 mm 3 mps 753 mmHg 81%
    20:00 +8°C° 0 mm 3 mps 753 mmHg 85%
    21:00 +7°C° 0 mm 3 mps 753 mmHg 88%
    22:00 +7°C° 0.1 mm 3 mps 753 mmHg 88%
    23:00 +7°C° 0.1 mm 4 mps 753 mmHg 88%

    Pasado mañana, 27 Septiembre, Jueves

    Tiempo Temperatura Precipitaciones Viento Presión Humedad
    00:00 +7°C° 0.1 mm 4 mps 753 mmHg 88%
    01:00 +6°C° 0 mm 4 mps 752 mmHg 90%
    02:00 +6°C° 0 mm 4 mps 752 mmHg 92%
    03:00 +5°C° 0 mm 5 mps 752 mmHg 93%
    04:00 +5°C° 0 mm 5 mps 752 mmHg 92%
    05:00 +5°C° 0 mm 4 mps 752 mmHg 90%
    06:00 +5°C° 0 mm 4 mps 751 mmHg 88%
    07:00 +5°C° 0 mm 5 mps 751 mmHg 83%
    08:00 +5°C° 0 mm 6 mps 751 mmHg 78%
    09:00 +6°C° 0 mm 7 mps 750 mmHg 73%
    10:00 +6°C° 0 mm 7 mps 750 mmHg 68%
    11:00 +7°C° 0 mm 8 mps 749 mmHg 63%
    12:00 +7°C° 0 mm 8 mps 749 mmHg 58%
    13:00 +7°C° 0 mm 8 mps 748 mmHg 57%
    14:00 +7°C° 0 mm 8 mps 748 mmHg 56%
    15:00 +7°C° 0 mm 8 mps 747 mmHg 55%
    16:00 +7°C° 0.2 mm 8 mps 747 mmHg 59%
    17:00 +6°C° 0.2 mm 8 mps 746 mmHg 64%
    18:00 +5°C° 0.2 mm 7 mps 746 mmHg 68%
    19:00 +5°C° 0.4 mm 7 mps 745 mmHg 73%
    20:00 +4°C° 0.4 mm 8 mps 745 mmHg 77%
    21:00 +4°C° 0.4 mm 8 mps 744 mmHg 81%
    22:00 +4°C° 0.4 mm 7 mps 744 mmHg 83%
    23:00 +4°C° 0.4 mm 6 mps 743 mmHg 86%

    28 Septiembre, Viernes

    Tiempo Temperatura Precipitaciones Viento Presión Humedad
    00:00 +5°C° 0.4 mm 5 mps 743 mmHg 88%
    01:00 +5°C° 0.1 mm 5 mps 743 mmHg 89%
    02:00 +5°C° 0.1 mm 5 mps 743 mmHg 90%
    03:00 +5°C° 0.1 mm 4 mps 743 mmHg 91%
    04:00 +3°C° 0 mm 5 mps 744 mmHg 92%
    05:00 +3°C° 0 mm 5 mps 744 mmHg 93%
    06:00 +2°C° 0 mm 5 mps 745 mmHg 93%
    07:00 +3°C° 0 mm 6 mps 745 mmHg 89%
    08:00 +4°C° 0 mm 6 mps 745 mmHg 84%
    09:00 +5°C° 0 mm 7 mps 746 mmHg 79%
    10:00 +5°C° 0 mm 7 mps 746 mmHg 76%
    11:00 +6°C° 0 mm 7 mps 747 mmHg 73%
    12:00 +8°C° 0 mm 7 mps 747 mmHg 71%
    13:00 +8°C° 0 mm 7 mps 747 mmHg 69%
    14:00 +8°C° 0 mm 7 mps 747 mmHg 68%
    15:00 +8°C° 0 mm 6 mps 747 mmHg 66%
    16:00 +8°C° 0 mm 6 mps 747 mmHg 68%
    17:00 +7°C° 0 mm 5 mps 747 mmHg 69%
    18:00 +7°C° 0 mm 4 mps 747 mmHg 70%
    19:00 +7°C° 0.5 mm 6 mps 746 mmHg 71%
    20:00 +6°C° 0.5 mm 7 mps 745 mmHg 73%
    21:00 +6°C° 0.5 mm 8 mps 744 mmHg 74%
    22:00 +7°C° 0.6 mm 8 mps 743 mmHg 76%
    23:00 +7°C° 0.6 mm 9 mps 742 mmHg 78%

    29 Septiembre, Sábado

    Tiempo Temperatura Precipitaciones Viento Presión Humedad
    00:00 +7°C° 0.6 mm 10 mps 741 mmHg 80%
    01:00 +8°C° 0.6 mm 10 mps 741 mmHg 81%
    02:00 +9°C° 0.6 mm 10 mps 740 mmHg 83%
    03:00 +9°C° 0.6 mm 10 mps 740 mmHg 84%
    04:00 +10°C° 1 mm 9 mps 741 mmHg 83%
    05:00 +8°C° 1 mm 9 mps 742 mmHg 81%
    06:00 +7°C° 1 mm 8 mps 743 mmHg 80%
    07:00 +6°C° 0 mm 8 mps 744 mmHg 77%
    08:00 +6°C° 0 mm 8 mps 746 mmHg 75%
    09:00 +5°C° 0 mm 7 mps 747 mmHg 72%
    10:00 +5°C° 0 mm 7 mps 748 mmHg 67%
    11:00 +6°C° 0 mm 7 mps 749 mmHg 62%
    12:00 +6°C° 0 mm 7 mps 750 mmHg 57%
    13:00 +7°C° 0 mm 6 mps 750 mmHg 57%
    14:00 +7°C° 0 mm 5 mps 751 mmHg 56%
    15:00 +7°C° 0 mm 5 mps 752 mmHg 56%
    16:00 +6°C° 0 mm 4 mps 752 mmHg 61%
    17:00 +5°C° 0 mm 3 mps 753 mmHg 66%
    18:00 +5°C° 0 mm 2 mps 753 mmHg 71%
    19:00 +6°C° 0 mm 1 mps 754 mmHg 72%
    20:00 +6°C° 0 mm 1 mps 754 mmHg 74%
    21:00 +5°C° 0 mm 1 mps 755 mmHg 75%
    22:00 +5°C° 0 mm 1 mps 755 mmHg 75%
    23:00 +5°C° 0 mm 1 mps 755 mmHg 76%

    30 Septiembre, Domingo

    Tiempo Temperatura Precipitaciones Viento Presión Humedad
    00:00 +5°C° 0 mm 1 mps 755 mmHg 76%
    01:00 +5°C° 0 mm 1 mps 755 mmHg 76%
    02:00 +5°C° 0 mm 1 mps 756 mmHg 76%
    03:00 +5°C° 0 mm 1 mps 756 mmHg 76%
    04:00 +4°C° 0 mm 1 mps 756 mmHg 78%
    05:00 +4°C° 0 mm 1 mps 756 mmHg 79%
    06:00 +3°C° 0 mm 1 mps 756 mmHg 81%
    07:00 +5°C° 0 mm 1 mps 757 mmHg 76%
    08:00 +5°C° 0 mm 2 mps 757 mmHg 72%
    09:00 +6°C° 0 mm 2 mps 757 mmHg 67%
    10:00 +6°C° 0 mm 2 mps 757 mmHg 63%
    11:00 +7°C° 0 mm 2 mps 757 mmHg 60%
    12:00 +8°C° 0 mm 3 mps 757 mmHg 56%
    13:00 +8°C° 0 mm 3 mps 757 mmHg 56%
    14:00 +8°C° 0 mm 2 mps 757 mmHg 56%
    15:00 +8°C° 0 mm 2 mps 757 mmHg 56%
    16:00 +7°C° 0 mm 2 mps 758 mmHg 60%
    17:00 +6°C° 0 mm 2 mps 758 mmHg 64%
    18:00 +5°C° 0 mm 2 mps 758 mmHg 68%
    19:00 +4°C° 0 mm 2 mps 759 mmHg 70%
    20:00 +3°C° 0 mm 2 mps 759 mmHg 73%
    21:00 +2°C° 0 mm 2 mps 759 mmHg 75%
    22:00 +2°C° 0 mm 2 mps 759 mmHg 75%
    23:00 +1°C° 0 mm 2 mps 760 mmHg 74%
    Mostrar más